[[{"header":{"parameterUnit":"m.s-1","parameterCategory":1,"la1":30.2991,"la2":30.254,"lo1":-89.0895,"lo2":-89.0444,"dy":0.0017,"dx":0.0017,"nx":28,"ny":28,"refTime":"2024-10-11T03:00:00:Z","depth":0,"parameterNumber":2,"parameterNumberName":"U-component_of_WINDS"},"data":[0,0,0,0,0,0,0,0,0,0,0,0,0,0,0,0,0,0,0,0,0,0,0,0,0,0,0,0,0,0,0,0,0,0,0,0,0,0,0,0,0,0,0,0,0,0,0,0,0,0,0,0,0,0,0,0,0,0,-2.4876,-2.4877,0,-2.495,-2.4951,-2.4952,-2.4857,-2.4853,-2.485,-2.4847,-2.4924,-2.4929,-2.4934,0,0,0,0,0,0,0,0,0,0,0,0,0,-2.4654,-2.4658,-2.4876,-2.4877,-2.4878,-2.495,-2.4951,-2.4952,-2.4857,-2.4853,-2.4849,-2.4845,-2.4922,-2.4928,-2.4935,0,0,0,0,0,0,0,0,0,0,0,0,0,-2.4741,-2.466,-2.4876,-2.4839,-2.4837,-2.495,-2.4951,-2.4953,-2.4858,-2.4853,-2.4848,-2.4843,-2.492,-2.4928,-2.4936,-2.5089,0,0,-2.496,-2.4963,0,0,0,0,0,0,0,0,-2.4737,-2.475,-2.4844,-2.4842,-2.484,-2.4889,-2.4901,-2.4998,-2.486,-2.485,-2.4846,-2.484,-2.4917,-2.4924,-2.495,-2.5092,-2.5096,-2.4961,-2.4965,-2.4969,-2.4971,0,0,0,0,0,0,0,-2.4731,-2.4746,-2.4906,-2.4845,-2.4843,-2.482,-2.4826,-2.4919,-2.4912,-2.4851,-2.4844,-2.4854,-2.4914,-2.4942,-2.4951,-2.5097,-2.496,-2.4967,-2.4972,-2.4975,-2.5369,-2.5375,0,0,0,0,0,0,-2.4729,-2.4742,-2.4903,-2.4908,-2.4774,-2.4828,-2.4835,-2.4878,-2.491,-2.491,-2.4858,-2.4849,-2.4931,-2.4942,-2.4953,-2.5136,-2.4969,-2.4976,-2.4981,-2.5364,-2.5371,-2.5377,0,0,0,0,0,0,-2.4724,-2.4744,-2.49,-2.4823,-2.4841,-2.4837,-2.4886,-2.4883,-2.4911,-2.4916,-2.4914,-2.4888,-2.4928,-2.4942,-2.5056,-2.5137,-2.498,-2.4987,-2.5357,-2.5366,-2.5374,-2.5502,0,0,0,0,0,0,-2.4718,-2.4743,-2.4801,-2.4825,-2.4846,-2.5002,-2.4891,-2.4888,-2.4924,-2.4913,-2.4944,-2.4944,-2.4925,-2.5045,-2.5064,-2.5145,-2.4993,-2.535,-2.5361,-2.5371,-2.549,-2.5513,-2.5533,0,0,0,0,0,-2.4711,-2.4834,-2.4805,-2.4825,-2.4918,-2.5007,-2.5018,-2.4993,-2.4931,-2.499,-2.4993,-2.4943,-2.5125,-2.5057,-2.5078,-2.5163,-2.5345,-2.5358,-2.537,-2.548,-2.5509,-2.5533,0,0,0,0,0,0,-2.4821,-2.4837,-2.4804,-2.4939,-2.4972,-2.499,-2.5064,-2.5024,-2.5076,-2.5064,-2.503,-2.5038,-2.516,-2.5172,-2.5097,-2.5313,-2.5224,-2.5242,-2.5301,-2.5328,-2.5349,-2.5345,-2.5,0,0,0,0,0,-2.486,-2.4931,-2.4941,-2.5059,-2.5077,-2.5068,-2.5106,-2.5083,-2.5117,-2.513,-2.5142,-2.5177,-2.5241,-2.5285,-2.5345,-2.549,-2.5496,-2.5559,-2.5581,-2.5598,-2.5615,-2.5694,-2.5722,-2.5419,-2.5419,-2.5419,0,0,-2.4944,-2.4961,-2.5008,-2.5082,-2.5105,-2.5179,-2.508,-2.5163,-2.5218,-2.5143,-2.5251,-2.5261,-2.5297,-2.5428,-2.5486,-2.5442,-2.57,-2.5615,-2.5629,-2.5636,-2.571,-2.5739,-2.5764,-2.5428,-2.5426,-2.5425,0,0,-2.5134,-2.5154,-2.5255,-2.528,-2.5316,-2.5308,-2.5333,-2.5357,-2.5361,-2.5469,-2.5414,-2.5479,-2.5591,-2.562,-2.5649,-2.5849,-2.5805,-2.5869,-2.5983,-2.6061,-2.6084,-2.6106,-2.6179,-2.6205,-2.5885,-2.5885,-2.5886,0,-2.5233,-2.5343,-2.5312,-2.5398,-2.5433,-2.5367,-2.547,-2.5496,-2.555,-2.5576,-2.5525,-2.5664,-2.5684,-2.5821,-2.587,-2.5895,-2.5923,-2.5867,-2.6083,-2.6104,-2.6123,-2.6193,-2.622,-2.5893,-2.5892,-2.5891,-2.5891,0,-2.5464,-2.554,-2.5617,-2.5671,-2.5714,-2.5808,-2.5792,-2.5839,-2.5813,-2.5811,-2.5922,-2.5943,-2.6007,-2.6037,-2.6012,-2.6171,-2.6143,-2.6088,-2.5999,-2.6161,-2.6225,-2.6251,-2.5904,-2.5901,-2.5899,-2.5897,0,0,-2.5727,-2.5762,-2.5791,-2.5815,-2.5849,-2.5908,-2.5999,-2.6061,-2.6103,-2.6142,-2.6218,-2.6314,-2.6264,-2.6297,-2.6275,-2.6342,-2.6501,-2.628,-2.628,-2.6322,-2.6679,-2.6721,-2.6752,-2.6471,-2.6476,-2.648,-2.6677,0,-2.5918,-2.6076,-2.6051,-2.6204,-2.6275,-2.6213,-2.6293,-2.6323,-2.6323,-2.6384,-2.6384,-2.6453,-2.6381,-2.6401,-2.6465,-2.6469,-2.6573,-2.6454,-2.6544,-2.6547,-2.6539,-2.6786,-2.6831,-2.7015,-2.6701,-2.6706,-2.6709,0,-2.6163,-2.6212,-2.6372,-2.6396,-2.6424,-2.6496,-2.6551,-2.6609,-2.6642,-2.6637,-2.6675,-2.6639,-2.6731,-2.6638,-2.6765,-2.6684,-2.6719,-2.6726,-2.6733,-2.6742,-2.6639,-2.6804,-2.7073,-2.7102,-2.6748,-2.6745,-2.6742,0,-2.6342,-2.6446,-2.6556,-2.6578,-2.6608,-2.666,-2.6675,-2.6703,-2.6741,-2.6789,-2.6814,-2.6871,-2.6904,-2.6949,-2.6931,-2.6865,-2.7061,-2.6967,-2.7061,-2.7062,-2.7107,-2.7105,-2.7388,-2.7126,-2.7126,-2.7125,-2.7125,0,-2.6559,-2.666,-2.6636,-2.6704,-2.6815,-2.6785,-2.6896,-2.6903,-2.6928,-2.6997,-2.6946,-2.7011,-2.6982,-2.7046,-2.7031,-2.7139,-2.7153,-2.7153,-2.7149,-2.7159,-2.7159,-2.7183,-2.717,-2.7133,-2.7131,-2.713,-2.7128,0,-2.6778,-2.6766,-2.6882,-2.69,-2.6907,-2.6989,-2.7005,-2.7068,-2.7064,-2.7152,-2.717,-2.7164,-2.7236,-2.7222,-2.7301,-2.7292,-2.7427,-2.7405,-2.7416,-2.7412,-2.7508,-2.75,-2.7818,-2.7858,-2.7569,-2.7572,-2.7574,0,-2.6919,-2.6995,-2.7022,-2.7064,-2.7083,-2.7151,-2.719,-2.7163,-2.7206,-2.7249,-2.7308,-2.7375,-2.7428,-2.7545,-2.7549,-2.7609,-2.759,-2.7697,-2.7599,-2.7607,-2.7594,-2.759,-2.7598,-2.7717,-2.7721,-2.7723,-2.7726,0,-2.7171,-2.7161,-2.7219,-2.7276,-2.7324,-2.7367,-2.7406,-2.7443,-2.7419,-2.747,-2.7542,-2.7583,-2.7664,-2.7732,-2.7788,-2.7803,-2.7762,-2.7756,-2.7781,-2.7794,-2.7798,-2.7799,-2.7472,-2.775,-2.7747,-2.7745,-2.7744,-2.7743,-2.7357,-2.7422,-2.7451,-2.7518,-2.7543,-2.758,-2.7641,-2.7645,-2.7705,-2.7768,-2.7748,-2.7832,-2.7862,-2.7933,-2.7955,-2.802,-2.798,-2.8016,-2.8026,-2.8036,-2.8048,-2.7786,-2.803,-2.8029,-2.8028,-2.8028,-2.8027,0,-2.7607,-2.7623,-2.7684,-2.774,-2.7792,-2.7747,-2.7787,-2.7834,-2.7908,-2.794,-2.7992,-2.8077,-2.8142,-2.815,-2.8212,-2.8262,-2.8245,-2.828,-2.8277,-2.8281,-2.808,-2.8052,-2.8293,-2.8293,-2.8293,-2.8293,-2.8293,-2.8293,-2.7744,-2.7852,-2.7846,-2.7966,-2.7981,-2.8062,-2.8089,-2.8123,-2.8148,-2.8245,-2.8299,-2.8303,-2.8326,-2.8389,-2.8447,-2.8447,-2.8473,-2.8516,-2.851,-2.8322,-2.8295,-2.827,-2.8245,-2.8522,-2.8522,-2.8706,-2.8708,-2.8709]},{"header":{"parameterUnit":"m.s-1","parameterCategory":1,"la1":30.2991,"la2":30.254,"lo1":-89.0895,"lo2":-89.0444,"dy":0.0017,"dx":0.0017,"nx":28,"ny":28,"refTime":"2024-10-11T03:00:00:Z","depth":0,"parameterNumber":3,"parameterNumberName":"V-component_of_WINDS"},"data":[0,0,0,0,0,0,0,0,0,0,0,0,0,0,0,0,0,0,0,0,0,0,0,0,0,0,0,0,0,0,0,0,0,0,0,0,0,0,0,0,0,0,0,0,0,0,0,0,0,0,0,0,0,0,0,0,0,0,-4.0682,-4.0682,0,-4.0705,-4.0706,-4.0706,-4.0633,-4.063,-4.0628,-4.0626,-4.0649,-4.0651,-4.0654,0,0,0,0,0,0,0,0,0,0,0,0,0,-4.0571,-4.0573,-4.0682,-4.0682,-4.0682,-4.0705,-4.0706,-4.0706,-4.0633,-4.063,-4.0627,-4.0625,-4.0648,-4.0651,-4.0654,0,0,0,0,0,0,0,0,0,0,0,0,0,-4.0609,-4.0574,-4.0682,-4.0649,-4.0646,-4.0705,-4.0706,-4.0706,-4.0633,-4.063,-4.0627,-4.0624,-4.0647,-4.0651,-4.0655,-4.0746,0,0,-4.0667,-4.0669,0,0,0,0,0,0,0,0,-4.0607,-4.0613,-4.0653,-4.0651,-4.0648,-4.0663,-4.0675,-4.072,-4.0634,-4.0638,-4.0626,-4.0622,-4.0656,-4.0659,-4.0671,-4.0747,-4.0748,-4.0667,-4.067,-4.0671,-4.0672,0,0,0,0,0,0,0,-4.0604,-4.0612,-4.0691,-4.0654,-4.0651,-4.0632,-4.0634,-4.0683,-4.0665,-4.0638,-4.0632,-4.0636,-4.0654,-4.0667,-4.0671,-4.0749,-4.0667,-4.0671,-4.0673,-4.0675,-4.09,-4.0903,0,0,0,0,0,0,-4.0606,-4.061,-4.069,-4.0692,-4.0619,-4.0637,-4.0639,-4.0661,-4.0665,-4.0662,-4.0639,-4.0633,-4.0662,-4.0666,-4.0671,-4.0777,-4.0671,-4.0675,-4.0677,-4.0896,-4.0901,-4.0904,0,0,0,0,0,0,-4.0604,-4.0614,-4.0689,-4.065,-4.0658,-4.0642,-4.0668,-4.0664,-4.0677,-4.0666,-4.0662,-4.0656,-4.0659,-4.0665,-4.0728,-4.0777,-4.0677,-4.0681,-4.0892,-4.0898,-4.0902,-4.0992,0,0,0,0,0,0,-4.0601,-4.0614,-4.065,-4.0651,-4.066,-4.0747,-4.0671,-4.0666,-4.0684,-4.0676,-4.0681,-4.0678,-4.0657,-4.0722,-4.0732,-4.0781,-4.0684,-4.0887,-4.0894,-4.0901,-4.0984,-4.1,-4.1013,0,0,0,0,0,-4.0598,-4.0674,-4.0652,-4.0662,-4.0704,-4.075,-4.0755,-4.073,-4.0688,-4.0723,-4.0716,-4.0678,-4.077,-4.0729,-4.0739,-4.0791,-4.0884,-4.0892,-4.09,-4.0978,-4.0997,-4.1012,0,0,0,0,0,0,-4.0679,-4.0674,-4.0649,-4.0728,-4.074,-4.0737,-4.0781,-4.075,-4.0774,-4.0765,-4.0732,-4.0734,-4.0802,-4.0802,-4.0757,-4.0878,-4.082,-4.0831,-4.0876,-4.0893,-4.0907,-4.0905,-4.0687,0,0,0,0,0,-4.0706,-4.0744,-4.0737,-4.0807,-4.0815,-4.0797,-4.0816,-4.0795,-4.0806,-4.0811,-4.0808,-4.0819,-4.085,-4.0872,-4.09,-4.0984,-4.0983,-4.1024,-4.1038,-4.105,-4.1059,-4.1102,-4.1119,-4.0931,-4.0931,-4.0931,0,0,-4.0762,-4.0764,-4.079,-4.0824,-4.083,-4.0869,-4.0802,-4.0846,-4.0875,-4.0817,-4.0875,-4.0874,-4.0884,-4.0958,-4.099,-4.096,-4.1111,-4.106,-4.1069,-4.1072,-4.1112,-4.113,-4.1145,-4.0936,-4.0935,-4.0934,0,0,-4.0884,-4.089,-4.0948,-4.0957,-4.0968,-4.0955,-4.0969,-4.0971,-4.0968,-4.1026,-4.0983,-4.1016,-4.1071,-4.108,-4.1092,-4.1216,-4.1181,-4.1226,-4.1299,-4.1341,-4.1356,-4.1369,-4.1412,-4.1428,-4.1235,-4.1235,-4.1236,0,-4.0952,-4.101,-4.0982,-4.103,-4.1045,-4.0995,-4.1052,-4.1061,-4.1081,-4.1093,-4.1059,-4.1126,-4.113,-4.1204,-4.1234,-4.1246,-4.1259,-4.1225,-4.1356,-4.1369,-4.1381,-4.1421,-4.1437,-4.1241,-4.124,-4.124,-4.1239,0,-4.1093,-4.1134,-4.1179,-4.12,-4.122,-4.1273,-4.1251,-4.1275,-4.1253,-4.1243,-4.1302,-4.1305,-4.1332,-4.1348,-4.1326,-4.1418,-4.1399,-4.1362,-4.1302,-4.1404,-4.1442,-4.1457,-4.1248,-4.1246,-4.1245,-4.1243,0,0,-4.1268,-4.127,-4.1288,-4.1295,-4.1303,-4.1334,-4.1383,-4.141,-4.143,-4.1446,-4.1485,-4.1533,-4.1497,-4.1511,-4.149,-4.1527,-4.1623,-4.1484,-4.1484,-4.1509,-4.1722,-4.175,-4.1768,-4.16,-4.1603,-4.1605,-4.1721,0,-4.1387,-4.1472,-4.1447,-4.1532,-4.1568,-4.152,-4.1563,-4.1572,-4.1565,-4.1593,-4.1584,-4.1618,-4.157,-4.1577,-4.1612,-4.1604,-4.1665,-4.1595,-4.1636,-4.1638,-4.1634,-4.1788,-4.1818,-4.1927,-4.1736,-4.1738,-4.174,0,-4.1537,-4.1558,-4.1647,-4.1647,-4.1661,-4.17,-4.1722,-4.175,-4.1759,-4.1751,-4.1765,-4.1736,-4.1783,-4.1724,-4.1788,-4.1741,-4.1756,-4.1754,-4.1758,-4.176,-4.1694,-4.1793,-4.1961,-4.1977,-4.1763,-4.1761,-4.1759,0,-4.1654,-4.1704,-4.1763,-4.1771,-4.1773,-4.1801,-4.1804,-4.1809,-4.1826,-4.1845,-4.1855,-4.1879,-4.1892,-4.1911,-4.1889,-4.1848,-4.1956,-4.1895,-4.1949,-4.195,-4.1973,-4.1972,-4.2145,-4.1985,-4.1985,-4.1985,-4.1984,0,-4.1789,-4.1845,-4.1815,-4.1851,-4.1912,-4.1882,-4.1943,-4.1939,-4.1944,-4.1978,-4.1938,-4.1971,-4.1939,-4.1969,-4.1952,-4.2006,-4.2013,-4.2007,-4.2001,-4.201,-4.201,-4.2018,-4.201,-4.1989,-4.1988,-4.1987,-4.1986,0,-4.193,-4.1912,-4.1973,-4.1969,-4.197,-4.2014,-4.2011,-4.2044,-4.2033,-4.2076,-4.2084,-4.2067,-4.21,-4.2079,-4.2112,-4.2101,-4.2172,-4.2156,-4.2169,-4.2164,-4.2219,-4.2214,-4.2402,-4.2425,-4.2252,-4.2254,-4.2255,0,-4.2017,-4.2058,-4.2059,-4.2079,-4.2083,-4.2116,-4.2133,-4.2105,-4.2124,-4.2136,-4.2168,-4.2196,-4.2218,-4.2272,-4.2262,-4.2287,-4.2271,-4.2335,-4.2274,-4.2281,-4.227,-4.2268,-4.2271,-4.2347,-4.2349,-4.2351,-4.2352,0,-4.2172,-4.2161,-4.2187,-4.221,-4.2232,-4.2248,-4.2262,-4.228,-4.2252,-4.2275,-4.2308,-4.2325,-4.2358,-4.2387,-4.2407,-4.2408,-4.2375,-4.2372,-4.2385,-4.2394,-4.2399,-4.2395,-4.2201,-4.2367,-4.2366,-4.2365,-4.2364,-4.2363,-4.2288,-4.2322,-4.2327,-4.2357,-4.2364,-4.2377,-4.2407,-4.24,-4.2427,-4.2451,-4.2433,-4.2471,-4.2477,-4.2501,-4.2506,-4.2535,-4.2509,-4.2529,-4.2534,-4.2539,-4.2546,-4.2395,-4.2539,-4.2539,-4.2538,-4.2538,-4.2538,0,-4.244,-4.2441,-4.2469,-4.2489,-4.2512,-4.2479,-4.2492,-4.2513,-4.2547,-4.2556,-4.2578,-4.2614,-4.2642,-4.2634,-4.2658,-4.2682,-4.2668,-4.269,-4.2687,-4.2687,-4.2569,-4.2554,-4.2701,-4.2701,-4.2701,-4.2701,-4.2701,-4.2701,-4.2522,-4.2578,-4.2567,-4.2625,-4.2625,-4.2662,-4.2672,-4.2683,-4.2689,-4.2732,-4.2754,-4.2749,-4.275,-4.2774,-4.2797,-4.2794,-4.2804,-4.2832,-4.2823,-4.2712,-4.2696,-4.2681,-4.2666,-4.2834,-4.2835,-4.2939,-4.294,-4.2941]}]]